The Dalles, WA

7:53 AM PDT on October 20, 2017 (GMT -0700)
Columbia Gorge Regional-The Dalles

Weather History for KDLS - May, 2014

Change the Weather History Date:

Friday, May 2, 2014

  Actual Average Record
Temperature  
Mean Temperature 66 °F -  
Max Temperature 79 °F 71 °F 91 °F (2016)
Min Temperature 54 °F 46 °F 32 °F (1952)
Cooling Degree Days 1    
Growing Degree Days 16 (Base 50)    
Moisture  
Dew Point 44 °F    
Average Humidity 46    
Maximum Humidity 72    
Minimum Humidity 25    
Precipitation  
Precipitation 0.00 in - - ()
Sea Level Pressure  
Sea Level Pressure 29.94 in    
Wind  
Wind Speed 7 mph (NW)    
Max Wind Speed 26 mph    
Max Gust Speed 33 mph    
Visibility 10 miles    
Events      
Averages and records for this station are not official NWS values.
T = Trace of Precipitation, MM = Missing Value Source: NWS Daily Summary

Daily Weather History Graph

Daily Weather History Graph

Search for Another Location

Airport or City:

Trip Planner

Search our weather history database for the weather conditions in past years. The results will help you decide how hot, cold, wet, or windy it might be!

Date:

Astronomy

May. 02, 2014 Rise Set
Actual Time 5:50 AM PDT 8:13 PM PDT
Civil Twilight 5:17 AM PDT 8:46 PM PDT
Nautical Twilight 4:36 AM PDT 9:27 PM PDT
Astronomical Twilight 3:50 AM PDT 10:14 PM PDT
Moon 8:29 AM PDT (5/2) 11:42 PM PDT (5/2)
Length of Visible Light 15h 28m
Length of Day
14h 22m
Waxing Crescent, 13% of the Moon is Illuminated
May 2
Waxing Crescent
May 6
First Quarter
May 14
Full
May 21
Last Quarter
May 28
New

Hourly Weather History & Observations

Time (PDT) Temp. Dew Point Humidity Pressure Visibility Wind Dir Wind Speed Gust Speed Precip Events Conditions
12:53 AM 61.0 °F 48.0 °F 62% 30.01 in 10.0 mi Calm Calm - N/A   Clear
1:53 AM 59.0 °F 46.0 °F 62% 30.01 in 10.0 mi Variable 3.5 mph - N/A   Clear
2:53 AM 55.0 °F 45.0 °F 69% 30.02 in 10.0 mi East 3.5 mph - N/A   Clear
3:53 AM 54.0 °F 45.0 °F 72% 30.03 in 10.0 mi Calm Calm - N/A   Clear
4:53 AM 59.0 °F 45.0 °F 60% 30.03 in 10.0 mi Variable 3.5 mph - N/A   Clear
5:53 AM 55.9 °F 43.0 °F 62% 30.03 in 10.0 mi NW 5.8 mph - N/A   Clear
6:53 AM 55.0 °F 44.1 °F 67% 30.04 in 10.0 mi SE 5.8 mph - N/A   Clear
7:53 AM 64.9 °F 43.0 °F 45% 30.04 in 10.0 mi Calm Calm - N/A   Clear
8:53 AM 68.0 °F 44.1 °F 42% 30.03 in 10.0 mi North 8.1 mph - N/A   Clear
9:53 AM 72.0 °F 43.0 °F 35% 30.01 in 10.0 mi NW 5.8 mph - N/A   Clear
10:53 AM 75.0 °F 43.0 °F 32% 29.99 in 10.0 mi NNW 5.8 mph - N/A   Clear
11:53 AM 75.9 °F 45.0 °F 33% 29.96 in 10.0 mi NW 8.1 mph - N/A   Clear
12:53 PM 78.1 °F 42.1 °F 28% 29.93 in 10.0 mi WNW 10.4 mph - N/A   Clear
1:53 PM 78.1 °F 43.0 °F 29% 29.90 in 10.0 mi WNW 12.7 mph 16.1 mph N/A   Clear
2:53 PM 78.1 °F 39.9 °F 25% 29.88 in 10.0 mi WNW 19.6 mph 24.2 mph N/A   Clear
3:53 PM 77.0 °F 39.9 °F 26% 29.86 in 10.0 mi NW 16.1 mph - N/A   Clear
4:53 PM 73.0 °F 42.1 °F 33% 29.86 in 10.0 mi NW 13.8 mph - N/A   Clear
5:53 PM 73.9 °F 39.9 °F 29% 29.84 in 10.0 mi WNW 26.5 mph 33.4 mph N/A   Clear
6:53 PM 73.0 °F 37.9 °F 28% 29.84 in 10.0 mi NW 17.3 mph 29.9 mph N/A   Clear
7:53 PM 70.0 °F 39.9 °F 33% 29.83 in 10.0 mi WNW 19.6 mph 31.1 mph N/A   Clear
8:53 PM 68.0 °F 46.0 °F 45% 29.86 in 10.0 mi WNW 18.4 mph 26.5 mph N/A   Clear
9:53 PM 64.9 °F 48.9 °F 56% 29.88 in 10.0 mi WNW 15.0 mph 21.9 mph N/A   Clear
10:53 PM 62.1 °F 51.1 °F 67% 29.89 in 10.0 mi WNW 13.8 mph - N/A   Clear
11:53 PM 60.1 °F 48.9 °F 67% 29.89 in 10.0 mi NW 13.8 mph - N/A   Clear